sat.trackr.live / text

‹ back to catalog

YAOGAN-39 01A

NORAD 57727 · 2023-130A

PAYLOAD ACTIVE UNKNOWN

§ Identity

Operator
Country
PRC
Launch date
2023-08-31
Launch site
XICLF
Launch vehicle
Mass (kg)
RCS (m²)

External: N2YO · Heavens-Above · Gunter

§ Orbital elements

Epoch: 2026-05-25T01:34:01.729920Z

Period
94.54 min
Inclination
35.0026°
Eccentricity
0.0003016
Mean motion
15.23133629 rev/d
Perigee alt
494.3 km
Apogee alt
498.5 km
Semi-major
6,874.5 km
B*
3.9615e-4
RAAN
274.1562°
Arg perigee
288.3886°
Mean anomaly
71.6500°
Rev number
15,218

§ Raw data

YAOGAN-39 01A1 57727U 23130A   26145.06529780  .00009557  00000+0  39615-3 0  99942 57727  35.0026 274.1562 0003016 288.3886  71.6500 15.23133629152187

JSON: /api/v1/satellites/57727 · /tle

For live sub-satellite position, see the globe view (requires WebGL).

§ Visibility from observer

Set your observer location to see the next 7 days of passes ≥ 10°. The values pass through the URL so the page stays shareable.

No JS? Fill the form by hand. The geolocation button needs JavaScript.